| time (UTC) | temp F | wind direction | speed MPH | gust MPH | rain 1hr in | rain 24hr in | rain mn in | humidity % | barometer mb |
| 20260507021003 | 56 | 249 | 1.0 | 8.0 | 0.13 | 0.25 | 0.25 | 93 | 1005.3 |
| 20260507020524 | 56 | 234 | 1.0 | 8.0 | 0.13 | 0.25 | 0.25 | 92 | 1005.4 |
| 20260507020002 | 56 | 208 | 1.0 | 8.0 | 0.13 | 0.25 | 0.25 | 92 | 1005.1 |
| 20260507015503 | 56 | 224 | 1.0 | 8.0 | 0.13 | 0.25 | 0.25 | 92 | 1005.3 |
| 20260507015003 | 56 | 216 | 1.0 | 6.0 | 0.13 | 0.25 | 0.25 | 92 | 1004.9 |
| 20260507014503 | 57 | 213 | 1.0 | 3.0 | 0.13 | 0.25 | 0.25 | 92 | 1004.9 |
| 20260507014003 | 57 | 297 | 3.0 | 10.0 | 0.13 | 0.25 | 0.25 | 92 | 1005.0 |
| 20260507013503 | 58 | 300 | 3.0 | 10.0 | 0.11 | 0.24 | 0.24 | 92 | 1005.0 |
| 20260507013003 | 59 | 228 | 2.0 | 7.0 | 0.11 | 0.24 | 0.24 | 92 | 1004.9 |
| 20260507012523 | 59 | 209 | 1.0 | 6.0 | 0.10 | 0.22 | 0.22 | 93 | 1004.8 |
| 20260507012003 | 60 | 203 | 1.0 | 3.0 | 0.04 | 0.16 | 0.16 | 93 | 1004.6 |
| 20260507011524 | 60 | 195 | 1.0 | 3.0 | 0.00 | 0.13 | 0.13 | 93 | 1004.5 |
| 20260507011003 | 59 | 191 | 1.0 | 3.0 | 0.00 | 0.13 | 0.13 | 93 | 1004.3 |
| 20260507010524 | 60 | 188 | 1.0 | 3.0 | 0.00 | 0.13 | 0.13 | 93 | 1004.3 |
| 20260507010003 | 59 | 193 | 1.0 | 3.0 | 0.00 | 0.13 | 0.13 | 93 | 1004.2 |
| 20260507005503 | 59 | 193 | 1.0 | 4.0 | 0.00 | 0.13 | 0.13 | 93 | 1004.3 |
| 20260507005003 | 59 | 187 | 1.0 | 4.0 | 0.00 | 0.13 | 0.13 | 93 | 1004.2 |
| 20260507004524 | 60 | 194 | 1.0 | 4.0 | 0.00 | 0.13 | 0.13 | 93 | 1004.2 |
| 20260507004003 | 59 | 197 | 1.0 | 4.0 | 0.00 | 0.13 | 0.13 | 93 | 1004.2 |
| 20260507003502 | 59 | 196 | 1.0 | 3.0 | 0.00 | 0.13 | 0.13 | 93 | 1004.1 |
| 20260507003024 | 59 | 197 | 1.0 | 6.0 | 0.00 | 0.13 | 0.13 | 93 | 1004.0 |
| 20260507002503 | 59 | 199 | 0.0 | 6.0 | 0.00 | 0.13 | 0.13 | 93 | 1003.7 |
| 20260507002003 | 60 | 189 | 0.0 | 2.0 | 0.00 | 0.14 | 0.13 | 93 | 1003.8 |
| 20260507001503 | 59 | 194 | 0.0 | 3.0 | 0.00 | 0.14 | 0.13 | 93 | 1004.1 |
| 20260507001003 | 59 | 196 | 1.0 | 4.0 | 0.00 | 0.14 | 0.13 | 93 | 1004.0 |
| 20260507000503 | 60 | 192 | 1.0 | 4.0 | 0.00 | 0.14 | 0.13 | 93 | 1003.9 |
| 20260507000003 | 59 | 195 | 1.0 | 6.0 | 0.00 | 0.14 | 0.13 | 93 | 1003.8 |
| 20260506235502 | 60 | 201 | 1.0 | 8.0 | 0.00 | 0.14 | 0.13 | 93 | 1003.8 |
| 20260506235003 | 60 | 203 | 1.0 | 8.0 | 0.00 | 0.14 | 0.13 | 93 | 1003.8 |
| 20260506234503 | 60 | 195 | 1.0 | 7.0 | 0.00 | 0.14 | 0.13 | 93 | 1003.5 |
| 20260506234003 | 59 | 191 | 1.0 | 7.0 | 0.00 | 0.14 | 0.13 | 93 | 1003.6 |
| 20260506233503 | 59 | 188 | 1.0 | 6.0 | 0.00 | 0.14 | 0.13 | 93 | 1003.7 |
| 20260506233003 | 60 | 185 | 0.0 | 4.0 | 0.00 | 0.14 | 0.13 | 93 | 1003.5 |
| 20260506232503 | 59 | 186 | 0.0 | 3.0 | 0.00 | 0.14 | 0.13 | 93 | 1003.9 |
| 20260506232003 | 60 | 194 | 1.0 | 7.0 | 0.00 | 0.14 | 0.13 | 93 | 1003.7 |
| 20260506231503 | 60 | 199 | 1.0 | 7.0 | 0.00 | 0.14 | 0.13 | 93 | 1004.0 |
| 20260506231003 | 60 | 198 | 1.0 | 6.0 | 0.00 | 0.14 | 0.13 | 93 | 1003.9 |
| 20260506230524 | 60 | 197 | 1.0 | 4.0 | 0.00 | 0.14 | 0.13 | 93 | 1003.8 |
| 20260506230003 | 60 | 197 | 1.0 | 4.0 | 0.00 | 0.14 | 0.13 | 93 | 1003.8 |
| 20260506225503 | 60 | 197 | 1.0 | 6.0 | 0.00 | 0.14 | 0.13 | 93 | 1003.8 |
| 20260506225003 | 60 | 195 | 1.0 | 6.0 | 0.00 | 0.14 | 0.13 | 93 | 1003.7 |
| 20260506224503 | 60 | 199 | 1.0 | 6.0 | 0.00 | 0.14 | 0.13 | 93 | 1003.8 |
| 20260506224003 | 60 | 205 | 2.0 | 7.0 | 0.00 | 0.14 | 0.13 | 93 | 1003.7 |
| 20260506223503 | 60 | 204 | 2.0 | 7.0 | 0.00 | 0.14 | 0.13 | 93 | 1003.9 |
| 20260506223003 | 60 | 195 | 1.0 | 4.0 | 0.00 | 0.14 | 0.13 | 93 | 1003.8 |
| 20260506222524 | 60 | 192 | 1.0 | 4.0 | 0.00 | 0.14 | 0.13 | 93 | 1003.7 |
| 20260506222003 | 60 | 193 | 1.0 | 4.0 | 0.00 | 0.14 | 0.13 | 93 | 1003.8 |
| 20260506221503 | 60 | 193 | 1.0 | 4.0 | 0.00 | 0.14 | 0.13 | 93 | 1004.1 |
| 20260506221003 | 60 | 192 | 1.0 | 3.0 | 0.00 | 0.14 | 0.13 | 93 | 1003.9 |
| 20260506220503 | 60 | 198 | 1.0 | 3.0 | 0.00 | 0.14 | 0.13 | 93 | 1004.0 |
| 20260506220003 | 60 | 198 | 2.0 | 7.0 | 0.00 | 0.14 | 0.13 | 93 | 1004.0 |
| 20260506215503 | 60 | 196 | 1.0 | 7.0 | 0.00 | 0.14 | 0.13 | 93 | 1004.1 |
| 20260506215003 | 60 | 196 | 1.0 | 7.0 | 0.00 | 0.14 | 0.13 | 93 | 1004.2 |
| 20260506214503 | 60 | 196 | 2.0 | 7.0 | 0.00 | 0.14 | 0.13 | 93 | 1004.0 |
| 20260506214003 | 61 | 199 | 2.0 | 8.0 | 0.00 | 0.14 | 0.13 | 93 | 1003.9 |
| 20260506213503 | 61 | 197 | 2.0 | 8.0 | 0.00 | 0.14 | 0.13 | 93 | 1003.9 |
| 20260506213003 | 60 | 201 | 2.0 | 8.0 | 0.00 | 0.14 | 0.13 | 93 | 1003.8 |
| 20260506212524 | 61 | 195 | 2.0 | 8.0 | 0.00 | 0.14 | 0.13 | 93 | 1004.1 |
| 20260506212003 | 61 | 189 | 2.0 | 7.0 | 0.00 | 0.14 | 0.13 | 93 | 1004.1 |
| 20260506211503 | 61 | 195 | 2.0 | 6.0 | 0.00 | 0.14 | 0.13 | 93 | 1004.2 |
| 20260506211003 | 61 | 199 | 2.0 | 7.0 | 0.00 | 0.14 | 0.13 | 93 | 1004.2 |
| 20260506210503 | 61 | 203 | 2.0 | 7.0 | 0.00 | 0.14 | 0.13 | 93 | 1004.1 |
| 20260506210003 | 61 | 205 | 3.0 | 10.0 | 0.00 | 0.14 | 0.13 | 93 | 1004.1 |
| 20260506205503 | 61 | 205 | 3.0 | 13.0 | 0.01 | 0.14 | 0.13 | 93 | 1004.1 |
| 20260506205003 | 61 | 200 | 2.0 | 13.0 | 0.01 | 0.14 | 0.13 | 93 | 1004.1 |
| 20260506204503 | 62 | 196 | 2.0 | 10.0 | 0.02 | 0.14 | 0.13 | 93 | 1004.3 |
| 20260506204003 | 62 | 194 | 2.0 | 10.0 | 0.03 | 0.14 | 0.13 | 93 | 1004.3 |
| 20260506203524 | 62 | 193 | 2.0 | 7.0 | 0.03 | 0.14 | 0.13 | 93 | 1004.3 |
| 20260506203003 | 61 | 191 | 1.0 | 7.0 | 0.05 | 0.14 | 0.13 | 93 | 1004.2 |
| 20260506202503 | 61 | 186 | 1.0 | 4.0 | 0.05 | 0.14 | 0.13 | 93 | 1004.2 |
| 20260506202003 | 61 | 189 | 1.0 | 6.0 | 0.05 | 0.14 | 0.13 | 93 | 1004.3 |
| 20260506201503 | 61 | 191 | 1.0 | 6.0 | 0.05 | 0.14 | 0.13 | 93 | 1004.5 |
| 20260506201024 | 61 | 195 | 1.0 | 4.0 | 0.05 | 0.14 | 0.13 | 93 | 1004.5 |
| 20260506200503 | 61 | 201 | 1.0 | 4.0 | 0.05 | 0.14 | 0.13 | 93 | 1004.6 |
| 20260506200003 | 61 | 192 | 1.0 | 6.0 | 0.05 | 0.14 | 0.13 | 92 | 1004.4 |
| 20260506195524 | 61 | 186 | 1.0 | 6.0 | 0.04 | 0.13 | 0.11 | 92 | 1004.7 |
| 20260506195003 | 61 | 197 | 1.0 | 6.0 | 0.04 | 0.13 | 0.11 | 92 | 1004.7 |
| 20260506194524 | 61 | 194 | 1.0 | 6.0 | 0.03 | 0.12 | 0.11 | 92 | 1004.6 |
| 20260506194003 | 62 | 187 | 1.0 | 4.0 | 0.03 | 0.11 | 0.10 | 92 | 1004.9 |
| 20260506193503 | 61 | 190 | 1.0 | 4.0 | 0.03 | 0.11 | 0.10 | 92 | 1004.9 |
| 20260506193003 | 61 | 189 | 1.0 | 4.0 | 0.01 | 0.09 | 0.08 | 92 | 1004.8 |
| 20260506192524 | 61 | 193 | 1.0 | 8.0 | 0.01 | 0.09 | 0.08 | 92 | 1004.7 |
| 20260506192002 | 62 | 196 | 1.0 | 8.0 | 0.01 | 0.09 | 0.08 | 91 | 1005.0 |
| 20260506191503 | 62 | 191 | 0.0 | 4.0 | 0.02 | 0.09 | 0.08 | 92 | 1004.9 |
| 20260506191024 | 62 | 196 | 0.0 | 2.0 | 0.02 | 0.09 | 0.08 | 92 | 1004.8 |
| 20260506190524 | 62 | 194 | 0.0 | 2.0 | 0.02 | 0.09 | 0.08 | 92 | 1004.7 |
| 20260506190003 | 62 | 188 | 0.0 | 3.0 | 0.03 | 0.09 | 0.08 | 91 | 1004.8 |
| 20260506185503 | 62 | 190 | 0.0 | 3.0 | 0.03 | 0.09 | 0.08 | 91 | 1004.7 |
| 20260506185024 | 62 | 195 | 0.0 | 3.0 | 0.04 | 0.09 | 0.08 | 91 | 1005.0 |
| 20260506184503 | 61 | 189 | 0.0 | 3.0 | 0.04 | 0.09 | 0.08 | 91 | 1005.1 |
| 20260506184003 | 61 | 179 | 0.0 | 2.0 | 0.05 | 0.08 | 0.07 | 91 | 1005.7 |
| 20260506183524 | 61 | 183 | 1.0 | 4.0 | 0.05 | 0.08 | 0.07 | 91 | 1005.4 |
| 20260506183024 | 61 | 190 | 1.0 | 4.0 | 0.06 | 0.08 | 0.07 | 90 | 1005.5 |
| 20260506182503 | 62 | 198 | 1.0 | 4.0 | 0.06 | 0.08 | 0.07 | 90 | 1005.9 |
| 20260506182003 | 61 | 199 | 1.0 | 3.0 | 0.06 | 0.08 | 0.07 | 90 | 1005.9 |
| 20260506181503 | 62 | 192 | 1.0 | 3.0 | 0.06 | 0.07 | 0.06 | 90 | 1005.8 |
| 20260506181024 | 62 | 190 | 1.0 | 3.0 | 0.06 | 0.07 | 0.06 | 90 | 1005.8 |
| 20260506180503 | 61 | 190 | 1.0 | 3.0 | 0.06 | 0.07 | 0.06 | 89 | 1005.9 |
| 20260506180024 | 61 | 184 | 1.0 | 7.0 | 0.05 | 0.06 | 0.05 | 89 | 1005.9 |
| 20260506175503 | 62 | 188 | 1.0 | 7.0 | 0.05 | 0.06 | 0.05 | 88 | 1006.1 |
| 20260506175003 | 62 | 195 | 1.0 | 4.0 | 0.04 | 0.06 | 0.04 | 86 | 1006.1 |
| 20260506174524 | 62 | 192 | 1.0 | 6.0 | 0.04 | 0.05 | 0.04 | 85 | 1006.3 |
| 20260506174003 | 63 | 190 | 2.0 | 6.0 | 0.02 | 0.04 | 0.04 | 84 | 1006.3 |
| 20260506173503 | 63 | 187 | 1.0 | 3.0 | 0.02 | 0.04 | 0.02 | 83 | 1006.5 |
| 20260506173003 | 64 | 187 | 1.0 | 2.0 | 0.02 | 0.03 | 0.02 | 81 | 1006.5 |
| 20260506172503 | 64 | 189 | 1.0 | 3.0 | 0.01 | 0.02 | 0.01 | 79 | 1006.2 |
| 20260506172024 | 65 | 192 | 1.0 | 3.0 | 0.01 | 0.02 | 0.01 | 76 | 1006.2 |
| 20260506171503 | 66 | 200 | 1.0 | 4.0 | 0.00 | 0.01 | 0.00 | 75 | 1006.1 |
| 20260506171003 | 66 | 200 | 2.0 | 9.0 | 0.00 | 0.01 | 0.00 | 72 | 1006.3 |
| 20260506170503 | 67 | 187 | 2.0 | 9.0 | 0.00 | 0.01 | 0.00 | 69 | 1006.0 |
| 20260506170003 | 68 | 184 | 2.0 | 9.0 | 0.00 | 0.01 | 0.00 | 68 | 1006.2 |
| 20260506165503 | 68 | 196 | 3.0 | 9.0 | 0.00 | 0.01 | 0.00 | 66 | 1005.7 |
| 20260506165024 | 69 | 198 | 3.0 | 11.0 | 0.00 | 0.01 | 0.00 | 64 | 1005.8 |
| 20260506164503 | 69 | 193 | 2.0 | 11.0 | 0.00 | 0.01 | 0.00 | 65 | 1005.7 |
| 20260506164024 | 69 | 193 | 2.0 | 9.0 | 0.00 | 0.01 | 0.00 | 66 | 1005.9 |
| 20260506163503 | 69 | 202 | 2.0 | 9.0 | 0.00 | 0.01 | 0.00 | 66 | 1006.2 |
| 20260506163003 | 69 | 202 | 2.0 | 8.0 | 0.00 | 0.01 | 0.00 | 65 | 1006.1 |
| 20260506162503 | 69 | 205 | 2.0 | 8.0 | 0.00 | 0.01 | 0.00 | 66 | 1006.4 |
| 20260506162003 | 69 | 214 | 2.0 | 7.0 | 0.00 | 0.01 | 0.00 | 65 | 1006.2 |
| 20260506161503 | 69 | 208 | 3.0 | 9.0 | 0.00 | 0.01 | 0.00 | 65 | 1006.1 |
| 20260506161024 | 69 | 204 | 3.0 | 9.0 | 0.00 | 0.01 | 0.00 | 66 | 1006.4 |
| 20260506160503 | 69 | 200 | 3.0 | 11.0 | 0.00 | 0.01 | 0.00 | 67 | 1006.3 |
| 20260506160003 | 69 | 195 | 2.0 | 11.0 | 0.00 | 0.01 | 0.00 | 65 | 1006.6 |
| 20260506155503 | 69 | 200 | 1.0 | 6.0 | 0.00 | 0.01 | 0.00 | 67 | 1006.6 |
| 20260506155003 | 68 | 198 | 2.0 | 6.0 | 0.00 | 0.01 | 0.00 | 67 | 1006.7 |
| 20260506154503 | 68 | 193 | 1.0 | 6.0 | 0.00 | 0.01 | 0.00 | 68 | 1006.8 |
| 20260506154003 | 68 | 188 | 1.0 | 2.0 | 0.00 | 0.01 | 0.00 | 69 | 1007.1 |
| 20260506153503 | 68 | 200 | 1.0 | 3.0 | 0.00 | 0.01 | 0.00 | 68 | 1007.2 |
| 20260506153003 | 68 | 203 | 1.0 | 3.0 | 0.00 | 0.01 | 0.00 | 68 | 1007.0 |
| 20260506152503 | 68 | 203 | 1.0 | 4.0 | 0.00 | 0.01 | 0.00 | 68 | 1007.0 |
| 20260506152003 | 68 | 200 | 1.0 | 4.0 | 0.00 | 0.01 | 0.00 | 68 | 1006.8 |
| 20260506151503 | 68 | 190 | 2.0 | 6.0 | 0.00 | 0.01 | 0.00 | 67 | 1007.2 |
| 20260506151003 | 68 | 188 | 1.0 | 6.0 | 0.00 | 0.01 | 0.00 | 67 | 1007.3 |
| 20260506150524 | 68 | 192 | 1.0 | 4.0 | 0.00 | 0.01 | 0.00 | 68 | 1007.2 |
| 20260506150003 | 68 | 196 | 2.0 | 7.0 | 0.00 | 0.01 | 0.00 | 68 | 1007.2 |
| 20260506145503 | 68 | 197 | 3.0 | 9.0 | 0.00 | 0.01 | 0.00 | 66 | 1007.1 |
| 20260506145003 | 68 | 194 | 3.0 | 9.0 | 0.00 | 0.01 | 0.00 | 66 | 1006.9 |
| 20260506144503 | 69 | 191 | 2.0 | 6.0 | 0.00 | 0.01 | 0.00 | 67 | 1006.8 |
| 20260506144003 | 69 | 206 | 2.0 | 8.0 | 0.00 | 0.01 | 0.00 | 69 | 1007.5 |
| 20260506143503 | 69 | 205 | 2.0 | 8.0 | 0.00 | 0.01 | 0.00 | 69 | 1007.3 |
| 20260506143003 | 69 | 198 | 2.0 | 8.0 | 0.00 | 0.01 | 0.00 | 68 | 1007.3 |
| 20260506142503 | 69 | 198 | 2.0 | 8.0 | 0.00 | 0.01 | 0.00 | 69 | 1007.1 |
| 20260506142003 | 69 | 198 | 2.0 | 4.0 | 0.00 | 0.01 | 0.00 | 71 | 1006.9 |
| 20260506141503 | 68 | 200 | 2.0 | 7.0 | 0.00 | 0.01 | 0.00 | 71 | 1007.3 |
| 20260506141003 | 68 | 200 | 2.0 | 7.0 | 0.00 | 0.01 | 0.00 | 72 | 1007.2 |
| 20260506140503 | 67 | 203 | 1.0 | 4.0 | 0.00 | 0.01 | 0.00 | 73 | 1007.1 |
| 20260506140003 | 67 | 192 | 1.0 | 4.0 | 0.00 | 0.01 | 0.00 | 74 | 1007.1 |
| 20260506135524 | 65 | 175 | 1.0 | 3.0 | 0.00 | 0.01 | 0.00 | 75 | 1007.2 |
| 20260506135003 | 65 | 188 | 1.0 | 3.0 | 0.00 | 0.01 | 0.00 | 75 | 1007.0 |
| 20260506134503 | 65 | 198 | 1.0 | 2.0 | 0.00 | 0.01 | 0.00 | 77 | 1007.2 |
| 20260506134003 | 64 | 183 | 1.0 | 2.0 | 0.00 | 0.01 | 0.00 | 78 | 1007.2 |
| 20260506133503 | 64 | 176 | 1.0 | 2.0 | 0.00 | 0.01 | 0.00 | 78 | 1007.5 |
| 20260506133003 | 64 | 182 | 1.0 | 3.0 | 0.00 | 0.01 | 0.00 | 78 | 1007.3 |
| 20260506132524 | 64 | 195 | 1.0 | 4.0 | 0.00 | 0.01 | 0.00 | 78 | 1007.4 |
| 20260506132024 | 64 | 193 | 1.0 | 4.0 | 0.00 | 0.01 | 0.00 | 78 | 1007.6 |
| 20260506131503 | 63 | 188 | 0.0 | 3.0 | 0.00 | 0.01 | 0.00 | 78 | 1007.3 |
| 20260506131003 | 63 | 194 | 1.0 | 3.0 | 0.00 | 0.01 | 0.00 | 78 | 1007.6 |
| 20260506130503 | 63 | 190 | 1.0 | 3.0 | 0.00 | 0.01 | 0.00 | 78 | 1007.8 |
| 20260506130003 | 63 | 189 | 1.0 | 3.0 | 0.00 | 0.01 | 0.00 | 78 | 1007.8 |
| 20260506125503 | 63 | 203 | 1.0 | 6.0 | 0.00 | 0.01 | 0.00 | 78 | 1007.8 |
| 20260506125003 | 62 | 204 | 2.0 | 6.0 | 0.00 | 0.01 | 0.00 | 78 | 1007.5 |
| 20260506124503 | 62 | 202 | 1.0 | 6.0 | 0.00 | 0.01 | 0.00 | 78 | 1007.7 |
| 20260506124024 | 62 | 207 | 2.0 | 6.0 | 0.00 | 0.01 | 0.00 | 78 | 1007.7 |
| 20260506123503 | 62 | 206 | 2.0 | 6.0 | 0.00 | 0.01 | 0.00 | 78 | 1007.5 |
| 20260506123003 | 62 | 196 | 1.0 | 3.0 | 0.00 | 0.01 | 0.00 | 79 | 1007.5 |
| 20260506122524 | 62 | 198 | 1.0 | 7.0 | 0.00 | 0.01 | 0.00 | 79 | 1007.6 |
| 20260506122003 | 62 | 201 | 1.0 | 7.0 | 0.00 | 0.01 | 0.00 | 79 | 1007.6 |
| 20260506121503 | 62 | 197 | 1.0 | 3.0 | 0.00 | 0.01 | 0.00 | 79 | 1007.7 |
| 20260506121003 | 61 | 199 | 1.0 | 3.0 | 0.00 | 0.01 | 0.00 | 79 | 1007.8 |
| 20260506120503 | 61 | 192 | 1.0 | 3.0 | 0.00 | 0.01 | 0.00 | 79 | 1007.6 |
| 20260506120003 | 61 | 198 | 1.0 | 4.0 | 0.00 | 0.01 | 0.00 | 80 | 1007.7 |
| 20260506115503 | 61 | 199 | 1.0 | 4.0 | 0.00 | 0.01 | 0.00 | 80 | 1007.6 |
| 20260506115003 | 61 | 194 | 1.0 | 3.0 | 0.00 | 0.01 | 0.00 | 80 | 1007.8 |
| 20260506114503 | 60 | 191 | 1.0 | 3.0 | 0.00 | 0.01 | 0.00 | 81 | 1007.9 |
| 20260506114003 | 60 | 191 | 0.0 | 2.0 | 0.00 | 0.01 | 0.00 | 81 | 1007.7 |
| 20260506113503 | 60 | 195 | 1.0 | 3.0 | 0.00 | 0.01 | 0.00 | 81 | 1007.9 |
| 20260506113003 | 60 | 196 | 1.0 | 3.0 | 0.00 | 0.01 | 0.00 | 82 | 1008.1 |
| 20260506112503 | 60 | 196 | 1.0 | 4.0 | 0.00 | 0.01 | 0.00 | 82 | 1008.0 |
| 20260506112024 | 59 | 195 | 1.0 | 4.0 | 0.00 | 0.01 | 0.00 | 82 | 1008.0 |
| 20260506111503 | 59 | 192 | 1.0 | 3.0 | 0.00 | 0.01 | 0.00 | 83 | 1008.2 |
| 20260506111003 | 59 | 196 | 1.0 | 6.0 | 0.00 | 0.01 | 0.00 | 84 | 1007.8 |
| 20260506110524 | 58 | 198 | 1.0 | 6.0 | 0.00 | 0.01 | 0.00 | 84 | 1007.7 |
| 20260506110003 | 58 | 195 | 1.0 | 3.0 | 0.00 | 0.01 | 0.00 | 85 | 1008.1 |
| 20260506105503 | 58 | 194 | 1.0 | 3.0 | 0.00 | 0.01 | 0.00 | 85 | 1007.9 |
| 20260506105003 | 57 | 195 | 1.0 | 3.0 | 0.00 | 0.01 | 0.00 | 85 | 1008.1 |
| 20260506104503 | 57 | 197 | 0.0 | 3.0 | 0.00 | 0.01 | 0.00 | 86 | 1008.0 |
| 20260506104003 | 56 | 195 | 0.0 | 1.0 | 0.00 | 0.01 | 0.00 | 85 | 1008.1 |
| 20260506103503 | 56 | 195 | 0.0 | 1.0 | 0.00 | 0.01 | 0.00 | 86 | 1008.0 |
| 20260506103003 | 56 | 196 | 0.0 | 1.0 | 0.00 | 0.01 | 0.00 | 86 | 1008.2 |
| 20260506102503 | 56 | 193 | 0.0 | 2.0 | 0.00 | 0.01 | 0.00 | 86 | 1008.0 |
| 20260506102003 | 56 | 190 | 1.0 | 2.0 | 0.00 | 0.01 | 0.00 | 86 | 1007.9 |
| 20260506101503 | 56 | 188 | 0.0 | 2.0 | 0.00 | 0.01 | 0.00 | 86 | 1007.9 |
| 20260506101024 | 56 | 195 | 0.0 | 4.0 | 0.00 | 0.01 | 0.00 | 87 | 1007.8 |
| 20260506100524 | 55 | 196 | 1.0 | 4.0 | 0.00 | 0.01 | 0.00 | 87 | 1007.8 |
| 20260506100003 | 55 | 192 | 0.0 | 2.0 | 0.00 | 0.01 | 0.00 | 87 | 1007.7 |
| 20260506095503 | 55 | 189 | 0.0 | 2.0 | 0.00 | 0.01 | 0.00 | 87 | 1007.5 |
| 20260506095003 | 55 | 186 | 0.0 | 1.0 | 0.00 | 0.01 | 0.00 | 87 | 1007.8 |
| 20260506094503 | 54 | 185 | 0.0 | 3.0 | 0.00 | 0.01 | 0.00 | 88 | 1008.0 |
| 20260506094024 | 55 | 188 | 0.0 | 3.0 | 0.00 | 0.01 | 0.00 | 88 | 1007.8 |
| 20260506093524 | 54 | 0 | 0.0 | 0.0 | 0.00 | 0.01 | 0.00 | 87 | 1008.1 |
| 20260506093003 | 54 | 0 | 0.0 | 0.0 | 0.00 | 0.01 | 0.00 | 88 | 1007.8 |
| 20260506092503 | 54 | 0 | 0.0 | 0.0 | 0.00 | 0.01 | 0.00 | 87 | 1007.8 |
| 20260506092003 | 54 | 0 | 0.0 | 0.0 | 0.00 | 0.01 | 0.00 | 88 | 1007.8 |
| 20260506091503 | 54 | 0 | 0.0 | 0.0 | 0.00 | 0.01 | 0.00 | 87 | 1007.8 |
| 20260506091003 | 54 | 0 | 0.0 | 0.0 | 0.00 | 0.01 | 0.00 | 87 | 1007.9 |
| 20260506090503 | 55 | 0 | 0.0 | 0.0 | 0.00 | 0.01 | 0.00 | 86 | 1007.9 |
| 20260506090003 | 55 | 186 | 0.0 | 1.0 | 0.00 | 0.01 | 0.00 | 85 | 1008.0 |
| 20260506085503 | 55 | 186 | 0.0 | 1.0 | 0.00 | 0.01 | 0.00 | 84 | 1007.8 |
| 20260506085003 | 56 | 186 | 1.0 | 1.0 | 0.00 | 0.01 | 0.00 | 84 | 1007.7 |
| 20260506084503 | 56 | 186 | 1.0 | 2.0 | 0.00 | 0.01 | 0.00 | 84 | 1007.7 |
| 20260506084003 | 56 | 187 | 1.0 | 3.0 | 0.00 | 0.01 | 0.00 | 84 | 1008.0 |
| 20260506083503 | 56 | 186 | 1.0 | 3.0 | 0.00 | 0.01 | 0.00 | 85 | 1008.0 |
| 20260506083003 | 56 | 185 | 1.0 | 2.0 | 0.00 | 0.01 | 0.00 | 85 | 1008.0 |
| 20260506082503 | 56 | 183 | 1.0 | 2.0 | 0.00 | 0.01 | 0.00 | 85 | 1007.9 |
| 20260506082003 | 56 | 180 | 1.0 | 2.0 | 0.00 | 0.01 | 0.00 | 85 | 1007.8 |
| 20260506081503 | 56 | 178 | 1.0 | 2.0 | 0.00 | 0.01 | 0.00 | 85 | 1008.0 |
| 20260506081003 | 56 | 177 | 1.0 | 2.0 | 0.00 | 0.01 | 0.00 | 85 | 1007.9 |
| 20260506080524 | 56 | 177 | 1.0 | 3.0 | 0.00 | 0.01 | 0.00 | 85 | 1007.9 |
| 20260506073503 | 57 | 185 | 1.0 | 3.0 | 0.00 | 0.01 | 0.00 | 84 | 1008.2 |
| 20260506073003 | 57 | 181 | 1.0 | 3.0 | 0.00 | 0.01 | 0.00 | 84 | 1007.8 |
| 20260506072503 | 57 | 177 | 1.0 | 3.0 | 0.00 | 0.01 | 0.00 | 83 | 1007.9 |
| 20260506072003 | 57 | 177 | 1.0 | 3.0 | 0.00 | 0.01 | 0.00 | 83 | 1007.9 |
| 20260506071503 | 57 | 179 | 1.0 | 2.0 | 0.00 | 0.01 | 0.00 | 83 | 1007.9 |
| 20260506071024 | 57 | 179 | 1.0 | 2.0 | 0.00 | 0.01 | 0.00 | 83 | 1007.7 |
| 20260506070503 | 57 | 179 | 0.0 | 2.0 | 0.00 | 0.01 | 0.00 | 83 | 1007.7 |
| 20260506062503 | 58 | 184 | 1.0 | 2.0 | 0.00 | 0.01 | 0.00 | 82 | 1007.5 |
| 20260506062003 | 58 | 182 | 1.0 | 2.0 | 0.00 | 0.01 | 0.00 | 82 | 1007.8 |
| 20260506061524 | 58 | 181 | 0.0 | 2.0 | 0.00 | 0.01 | 0.00 | 81 | 1007.4 |
| 20260506061003 | 58 | 180 | 0.0 | 2.0 | 0.00 | 0.01 | 0.00 | 81 | 1007.4 |
| 20260506060503 | 58 | 180 | 1.0 | 2.0 | 0.00 | 0.01 | 0.00 | 81 | 1007.5 |
| 20260506051003 | 57 | 188 | 0.0 | 2.0 | 0.00 | 0.01 | 0.00 | 83 | 1007.7 |
| 20260506050524 | 58 | 187 | 0.0 | 2.0 | 0.00 | 0.01 | 0.00 | 83 | 1007.6 |
| 20260506045003 | 58 | 187 | 1.0 | 1.0 | 0.00 | 0.01 | 0.00 | 83 | 1008.0 |
| 20260506044503 | 58 | 187 | 1.0 | 2.0 | 0.00 | 0.01 | 0.00 | 83 | 1008.1 |
| 20260506044003 | 59 | 188 | 1.0 | 2.0 | 0.00 | 0.01 | 0.00 | 82 | 1007.9 |
| 20260506043503 | 59 | 188 | 1.0 | 2.0 | 0.00 | 0.01 | 0.00 | 81 | 1007.9 |
| 20260506043024 | 59 | 188 | 1.0 | 2.0 | 0.00 | 0.01 | 0.00 | 81 | 1008.0 |
| 20260506042503 | 60 | 187 | 1.0 | 2.0 | 0.00 | 0.01 | 0.00 | 79 | 1008.1 |
| 20260506042003 | 60 | 187 | 0.0 | 1.0 | 0.00 | 0.01 | 0.00 | 77 | 1007.6 |
| 20260506041503 | 61 | 187 | 0.0 | 1.0 | 0.00 | 0.01 | 0.00 | 76 | 1008.0 |
| 20260506041003 | 61 | 187 | 0.0 | 1.0 | 0.00 | 0.01 | 0.00 | 75 | 1007.8 |
| 20260506040503 | 62 | 188 | 0.0 | 1.0 | 0.00 | 0.01 | 0.00 | 75 | 1007.8 |
| 20260506040024 | 62 | 189 | 0.0 | 3.0 | 0.00 | 0.01 | 0.00 | 75 | 1008.2 |
| 20260506035503 | 62 | 191 | 1.0 | 3.0 | 0.00 | 0.01 | 0.01 | 74 | 1007.9 |
| 20260506035003 | 62 | 193 | 1.0 | 2.0 | 0.00 | 0.01 | 0.01 | 73 | 1007.9 |
| 20260506034503 | 63 | 197 | 1.0 | 3.0 | 0.00 | 0.01 | 0.01 | 72 | 1008.1 |
| 20260506034003 | 63 | 198 | 1.0 | 3.0 | 0.00 | 0.01 | 0.01 | 72 | 1007.7 |
| 20260506033503 | 63 | 192 | 1.0 | 6.0 | 0.00 | 0.01 | 0.01 | 71 | 1007.7 |
| 20260506033024 | 64 | 190 | 2.0 | 8.0 | 0.00 | 0.01 | 0.01 | 71 | 1007.7 |
| 20260506032503 | 64 | 185 | 1.0 | 8.0 | 0.00 | 0.01 | 0.01 | 74 | 1007.5 |
| 20260506032003 | 63 | 183 | 1.0 | 7.0 | 0.00 | 0.01 | 0.01 | 71 | 1007.7 |
| 20260506031503 | 63 | 188 | 1.0 | 3.0 | 0.00 | 0.01 | 0.01 | 74 | 1007.6 |
| 20260506031003 | 62 | 193 | 1.0 | 4.0 | 0.00 | 0.01 | 0.01 | 77 | 1007.8 |
| 20260506030503 | 61 | 195 | 1.0 | 4.0 | 0.00 | 0.01 | 0.01 | 79 | 1007.6 |
| 20260506030003 | 60 | 191 | 1.0 | 4.0 | 0.00 | 0.01 | 0.01 | 83 | 1007.8 |
| 20260506025503 | 60 | 189 | 1.0 | 3.0 | 0.00 | 0.01 | 0.01 | 84 | 1007.6 |
| 20260506025004 | 60 | 193 | 0.0 | 3.0 | 0.00 | 0.01 | 0.01 | 84 | 1007.8 |
| 20260506024503 | 60 | 198 | 0.0 | 2.0 | 0.00 | 0.01 | 0.01 | 84 | 1007.9 |
| 20260506024003 | 60 | 198 | 0.0 | 1.0 | 0.00 | 0.01 | 0.01 | 84 | 1007.7 |
| 20260506023503 | 60 | 0 | 0.0 | 0.0 | 0.00 | 0.01 | 0.01 | 84 | 1007.6 |
| 20260506023003 | 60 | 0 | 0.0 | 0.0 | 0.00 | 0.01 | 0.01 | 84 | 1007.4 |
| 20260506022503 | 61 | 0 | 0.0 | 0.0 | 0.00 | 0.01 | 0.01 | 84 | 1007.6 |
| 20260506022003 | 61 | 0 | 0.0 | 0.0 | 0.00 | 0.01 | 0.01 | 84 | 1007.6 |
| 20260506021503 | 61 | 0 | 0.0 | 0.0 | 0.00 | 0.01 | 0.01 | 84 | 1007.6 |